This is the latest recevied weather packets stored in our database for station/object FREPRT-WX. If no packets are shown the sender has not sent any weather packets the latest 10 day(s).
| Time | Temp. | Humidity | Pressure | Rain* | Wind** | Luminosity | Snow |
|---|---|---|---|---|---|---|---|
| 1778078743 | 8.89° C | 59% | 984.4 hPa | 0 mm | - | - | - |
| 1778077860 | 7.78° C | 59% | 984.4 hPa | 0 mm | - | - | - |
| 1778076943 | 7.78° C | 59% | 984.4 hPa | 0 mm | - | - | - |
| 1778076073 | 7.78° C | 55% | 983.9 hPa | 0 mm | - | - | - |
| 1778075139 | 7.22° C | 64% | 983.2 hPa | 0 mm | - | - | - |
| 1778074259 | 6.67° C | 64% | 983.2 hPa | 0 mm | - | - | - |
| 1778073341 | 6.11° C | 64% | 983.2 hPa | 0 mm | - | - | - |
| 1778072469 | 6.11° C | 64% | 983.2 hPa | 0 mm | - | - | - |
| 1778071543 | 5.56° C | 71% | 982.4 hPa | 0 mm | - | - | - |
| 1778070660 | 5° C | 71% | 982.4 hPa | 0 mm | - | - | - |
| 1778069744 | 4.44° C | 71% | 982.4 hPa | 0 mm | - | - | - |
| 1778068878 | 4.44° C | 71% | 982.4 hPa | 0 mm | - | - | - |
| 1778067943 | 3.89° C | 76% | 981.6 hPa | 0 mm | - | - | - |
| 1778067058 | 3.33° C | 76% | 981.6 hPa | 0 mm | - | - | - |
| 1778066140 | 2.78° C | 76% | 981.6 hPa | 0 mm | - | - | - |
| 1778065272 | 2.78° C | 76% | 981.6 hPa | 0 mm | - | - | - |
| 1778064340 | 2.78° C | 76% | 981 hPa | 0 mm | - | - | - |
| 1778063458 | 2.78° C | 76% | 981.5 hPa | 0 mm | - | - | - |
| 1778062541 | 2.78° C | 76% | 981.5 hPa | 0 mm | - | - | - |
| 1778061674 | 3.33° C | 76% | 981.5 hPa | 0 mm | - | - | - |
| 1778060741 | 3.33° C | 72% | 980.5 hPa | 0 mm | - | - | - |
| 1778059857 | 3.33° C | 72% | 980.9 hPa | 0 mm | - | - | - |
| 1778058940 | 3.89° C | 72% | 980.9 hPa | 0 mm | - | - | - |
| 1778058075 | 3.89° C | 72% | 980.9 hPa | 0 mm | - | - | - |
| 1778057140 | 3.89° C | 70% | 980.3 hPa | 0 mm | - | - | - |
* Rain latest hour (hover to see other rain measurements)
** Current wind speed in m/s (hover to see current wind gust speed)